CCA112 VHHH-ZBAA

Flight info

Callsign CCA112
Flight time N/A
Altitude 41100
Route BEKOL1X/07R BEKOL A461 BUBDA W56 DUGEB
Aircraft A359/H-SDE2E3GHIJ3J4J5LM1ORWXY/LB1D1

Departure

Time N/A
Airport Hong Kong International Airport (VHHH)

Arrival

Time 2026-05-05 10:05
Airport Beijing Capital International Airport (ZBAA)
Time Latitude Longitude Altitude Speed Heading
2026-05-05 09:26 26.77229 113.42895 40994 ft 473 kts 350°
2026-05-05 09:27 26.83800 113.42649 41003 ft 471 kts 351°
2026-05-05 09:27 26.90345 113.42398 40997 ft 470 kts 351°
2026-05-05 09:28 26.96880 113.42143 40994 ft 469 kts 351°
2026-05-05 09:28 27.03356 113.41891 40999 ft 469 kts 351°
2026-05-05 09:29 27.09910 113.41637 41001 ft 469 kts 351°
2026-05-05 09:29 27.16385 113.41387 41000 ft 469 kts 351°
2026-05-05 09:30 27.22902 113.41133 41008 ft 469 kts 351°
2026-05-05 09:30 27.29419 113.40881 41001 ft 469 kts 351°
2026-05-05 09:31 27.35947 113.40679 41000 ft 470 kts 353°
2026-05-05 09:31 27.42512 113.40816 40996 ft 472 kts 354°
2026-05-05 09:32 27.49083 113.41029 41014 ft 472 kts 354°
2026-05-05 09:32 27.55646 113.41197 41000 ft 471 kts 354°
2026-05-05 09:33 27.62199 113.41332 40999 ft 471 kts 354°
2026-05-05 09:33 27.68761 113.41528 41002 ft 473 kts 356°
2026-05-05 09:34 27.77686 113.42373 41006 ft 475 kts 358°
2026-05-05 09:34 28.04140 113.44842 41019 ft 478 kts 358°
2026-05-05 09:35 28.30622 113.46790 41000 ft 477 kts 357°
2026-05-05 09:35 28.70157 113.49610 41001 ft 476 kts 357°
2026-05-05 09:36 28.96564 113.51510 41003 ft 476 kts 358°
2026-05-05 09:36 29.23003 113.53417 40995 ft 476 kts 358°
2026-05-05 09:37 29.49422 113.55627 40976 ft 475 kts 358°
2026-05-05 09:37 29.75780 113.57919 40972 ft 474 kts 359°
2026-05-05 09:38 30.01813 113.63108 40957 ft 489 kts 17°
2026-05-05 09:38 30.26772 113.75660 40954 ft 490 kts 17°
2026-05-05 09:39 30.51868 113.88262 40948 ft 491 kts 18°
2026-05-05 09:39 30.76840 114.00942 40935 ft 492 kts 20°
2026-05-05 09:40 31.01603 114.14536 40948 ft 492 kts 19°
2026-05-05 09:40 31.26380 114.28021 40948 ft 491 kts 20°
2026-05-05 09:41 31.39092 114.33132 40962 ft 476 kts
2026-05-05 09:41 31.52287 114.33718 40949 ft 474 kts 356°
2026-05-05 09:41 31.78630 114.34446 40965 ft 474 kts 357°
2026-05-05 09:42 32.04982 114.35233 40944 ft 473 kts 357°
2026-05-05 09:42 32.26818 114.35902 40925 ft 472 kts 358°
2026-05-05 09:43 32.57495 114.38771 40924 ft 472 kts
2026-05-05 09:43 32.79304 114.40790 40909 ft 473 kts
2026-05-05 09:44 33.05494 114.43232 40904 ft 471 kts
2026-05-05 09:44 33.31620 114.45700 40901 ft 470 kts
2026-05-05 09:45 33.57698 114.48144 40896 ft 469 kts
2026-05-05 09:45 33.83750 114.50592 40893 ft 469 kts
2026-05-05 09:46 34.09764 114.53041 40891 ft 469 kts
2026-05-05 09:46 34.35605 114.55497 40884 ft 468 kts
2026-05-05 09:47 34.61582 114.57970 40881 ft 468 kts
2026-05-05 09:47 34.87506 114.60434 40864 ft 467 kts
2026-05-05 09:48 35.13392 114.62915 40861 ft 466 kts
2026-05-05 09:48 35.39272 114.65412 40836 ft 466 kts
2026-05-05 09:49 35.65127 114.67922 40830 ft 465 kts
2026-05-05 09:49 35.90937 114.70444 40822 ft 465 kts
2026-05-05 09:50 36.16715 114.72989 40810 ft 464 kts 360°
2026-05-05 09:50 36.42229 114.77791 40807 ft 477 kts 18°
2026-05-05 09:51 36.66382 114.91801 40806 ft 478 kts 19°
2026-05-05 09:51 36.90489 115.05866 40797 ft 480 kts 19°
2026-05-05 09:52 37.14147 115.19784 39857 ft 464 kts 19°
2026-05-05 09:52 37.25791 115.26656 38948 ft 462 kts 19°
2026-05-05 09:52 37.37393 115.33533 37984 ft 461 kts 19°
2026-05-05 09:53 37.49036 115.40458 36915 ft 465 kts 19°
2026-05-05 09:53 37.60777 115.47465 35889 ft 467 kts 19°
2026-05-05 09:53 37.72518 115.54499 34904 ft 470 kts 19°
2026-05-05 09:53 37.84897 115.58464 33963 ft 454 kts 355°
2026-05-05 09:54 37.97537 115.57640 32926 ft 457 kts 352°
2026-05-05 09:54 38.10272 115.56641 31533 ft 461 kts 353°
2026-05-05 09:54 38.23247 115.55885 27931 ft 466 kts 356°
2026-05-05 09:54 38.35613 115.60878 25018 ft 469 kts 22°
2026-05-05 09:55 38.47192 115.68329 22045 ft 461 kts 23°
2026-05-05 09:55 38.58417 115.75460 19344 ft 444 kts 23°
2026-05-05 09:55 38.69918 115.80402 18421 ft 434 kts 13°
2026-05-05 09:55 38.81427 115.84685 17444 ft 428 kts 13°
2026-05-05 09:56 38.92770 115.88894 16415 ft 421 kts 13°
2026-05-05 09:56 39.03946 115.93051 15419 ft 415 kts 13°
2026-05-05 09:56 39.14945 115.97156 14456 ft 409 kts 13°
2026-05-05 09:56 39.25809 116.01225 13524 ft 403 kts 13°
2026-05-05 09:57 39.36517 116.05246 12504 ft 399 kts 13°
2026-05-05 09:57 39.47124 116.09245 11506 ft 395 kts 13°
2026-05-05 09:57 39.57435 116.13143 10553 ft 391 kts 13°
2026-05-05 09:57 39.67809 116.17077 9617 ft 388 kts 13°
2026-05-05 09:58 39.77319 116.20706 8646 ft 335 kts 12°
2026-05-05 09:58 39.85756 116.23916 7712 ft 305 kts 13°
2026-05-05 09:58 39.93892 116.27009 6732 ft 307 kts 14°
2026-05-05 09:58 40.02034 116.30143 6005 ft 310 kts 15°
2026-05-05 09:59 40.10236 116.33295 5510 ft 308 kts 15°
2026-05-05 09:59 40.18404 116.36442 4819 ft 305 kts 15°
2026-05-05 09:59 40.21995 116.37828 4923 ft 305 kts 15°
2026-05-05 09:59 40.24031 116.38615 4929 ft 305 kts 15°
2026-05-05 10:00 40.30550 116.41135 4921 ft 303 kts 17°
2026-05-05 10:00 40.38001 116.44020 4949 ft 260 kts 17°
2026-05-05 10:00 40.40710 116.51255 4937 ft 237 kts 97°
2026-05-05 10:00 40.37885 116.56573 4479 ft 170 kts 165°
2026-05-05 10:01 40.34048 116.57374 3988 ft 121 kts 178°
2026-05-05 10:01 40.30670 116.57861 3801 ft 121 kts 177°
2026-05-05 10:01 40.27378 116.58397 3648 ft 115 kts 178°
2026-05-05 10:01 40.24203 116.58896 3169 ft 119 kts 179°
2026-05-05 10:02 40.20856 116.59421 2489 ft 122 kts 178°
2026-05-05 10:02 40.17531 116.59943 1827 ft 120 kts 178°
2026-05-05 10:02 40.15638 116.60240 1444 ft 122 kts 180°
2026-05-05 10:02 40.14795 116.60370 1280 ft 122 kts 176°
2026-05-05 10:03 40.13959 116.60504 1102 ft 121 kts 176°
2026-05-05 10:03 40.13122 116.60636 942 ft 121 kts 178°
2026-05-05 10:03 40.12275 116.60765 784 ft 124 kts 175°
2026-05-05 10:03 40.11438 116.60899 583 ft 123 kts 175°
2026-05-05 10:04 40.10576 116.61034 462 ft 139 kts 176°
2026-05-05 10:04 40.09972 116.61133 306 ft 140 kts 175°
2026-05-05 10:04 40.09224 116.61255 199 ft 134 kts 174°
2026-05-05 10:04 40.08350 116.61392 132 ft 124 kts 174°
2026-05-05 10:05 40.07777 116.61473 123 ft 41 kts 173°
2026-05-05 10:05 40.07655 116.61492 127 ft 29 kts 173°
2026-05-05 10:05 40.07618 116.61497 125 ft 28 kts 173°
2026-05-05 10:06 40.07426 116.61526 127 ft 27 kts 174°
2026-05-05 10:06 40.07275 116.61487 128 ft 21 kts 205°
2026-05-05 10:06 40.07130 116.61403 125 ft 24 kts 203°
2026-05-05 10:06 40.06964 116.61362 125 ft 25 kts 174°
2026-05-05 10:07 40.06877 116.61282 125 ft 11 kts 266°
2026-05-05 10:07 40.06873 116.61235 125 ft 1 kts 263°
2026-05-05 10:07 40.06870 116.61200 126 ft 8 kts 263°
2026-05-05 10:07 40.06859 116.61092 129 ft 16 kts 262°
2026-05-05 10:08 40.06854 116.61052 125 ft 16 kts 255°
2026-05-05 10:08 40.06816 116.60991 127 ft 14 kts 211°
2026-05-05 10:08 40.06742 116.60936 126 ft 10 kts 242°
2026-05-05 10:08 40.06736 116.60882 126 ft 0 kts 262°